User: anonymous   Login
Location: Cincinnati Observatory Center
(39.1389°N, 84.4225°W)
Time: 06:34:21
(UTC-04:00)
Language:

COSMOS 2428 - Orbit

View from above orbital plane
View from above orbital plane
View from above satellite
View from above satellite

Ground track
Ground track

The orbit data is extracted from the following two-line orbital elements,

1 31792U 07029A   15245.07911102  .00000137  00000-0  10000-3 0  9993
2 31792  70.9783 344.1655 0008139 194.3601 224.1142 14.12516121421716
Epoch (UTC): 02 September 2015 01:53:55
Eccentricity: 0.0008139
inclination: 70.9783°
perigee height: 845 km
apogee height: 856 km
right ascension of ascending node: 344.1655°
argument of perigee: 194.3601°
revolutions per day: 14.12516121
mean anomaly at epoch: 224.1142°
orbit number at epoch: 42171

The dashed part of the orbit path shows where the satellite is in the earth's shadow,  

DLR